ELECTRON KICK STAGE R/B, 62928

Orbit data source: Space-Track

ELECTRON KICK STAGE R/B, 62928 is space debris in SSO originally from a launch on Sat, 08 Feb 2025 UTC via an ELECTRON launch vehicle from the Rocket Lab Launch Complex (RLLC). Debris objects in space refer to the collection of defunct objects orbiting the Earth. Examples of debris include non-operational satellites, rocket bodies, and fragments generated from explosions, collisions, or faulty payload assembly.

Loading next visibility...
Identifier
62928, 2025-028A
Orbit
SSO
Country
Flag of USUS
Related business
Manufacturer
Rocket Lab
Mission
Spacecraft
Bus & Motor
KICK STAGE, CURIE
Mass
~50 kg wet, ~50 kg dry
Launch date (UTC)
2025-02-08 (7 months ago)
Launch vehicle
ELECTRON
Launch site
Rocket Lab Launch Complex (RLLC)
Object type
Payload
Rocket body
Debris
Shape & HBR
Trunc Cone, 0.7 m
Radar Cross Section
0.760 m², Medium (>0.1 m² and < 1m²)

Expand to show TLE details & history
Last TLE update: 19 hours ago

TLE from 19 hours ago
0 ELECTRON KICK STAGE R/B
1 62928U 25028A   25259.43301336  .00003000  00000-0  33275-3 0  9996
2 62928  97.9306 315.1990 0041677  31.4291 328.9403 14.87406245 32629
Epoch: 2025-09-16T10:23Z
TLE epoch observation values (Epoch: 2025-09-16T10:23:32.354Z)
Latitude
0.00004°
Longitude
163.6908°
Altitude
584.166 km
Speed
7.582 km/s
True Right ascension
21h 00m 47s
True Declination
0° 00' 00"
Sunlit
Object was in full shadow at epoch
Visualization orbit readout
Latitude
Unknown
Longitude
Unknown
Altitude
Unknown
Speed
Unknown
Apparent Right ascension
Unknown
Apparent Declination
Unknown
Sunlit
N/A
Visualization observer readout
Local Sidereal Time
22:13:36
Azimuth
Unknown
Elevation
Unknown
Doppler factor
Unknown
Orbital elements
Apogee altitude
632.171 km
Perigee altitude
573.98 km
Semi-major axis
6,981.213 km
Eccentricity
0.00417
Inclination
97.9306°
RAAN
315.199°
Arg. of periapsis
31.4291°
True anomaly
328.6928°
Mean anomaly
328.9403°
Eccentric anomaly
328.81666°
Mean motion
3.72089 °/min
Orbital period
96.75 mins
BSTAR
0.00033275
Loading maneuver chart data...
Computing Atmospheric mass density...
Loading historical data...
Loading historical data...
Loading historical data...
Loading historical data...
Loading historical data...
Loading historical data...
Loading historical data...

Documentation

Showing up to 5 results
|